Watsonville, CA

2:09 PM PDT on July 23, 2017 (GMT -0700)
Watsonville Municipal

Weather History for KWVI - August, 2014

Change the Weather History Date:

Friday, August 29, 2014

  Actual Average Record
Temperature  
Mean Temperature 69 °F 64 °F  
Max Temperature 77 °F 75 °F 97 °F (2009)
Min Temperature 61 °F 53 °F 49 °F (2012)
Degree Days  
Heating Degree Days 0    
Month to date heating degree days 0  
Since 1 June heating degree days 108  
Since 1 July heating degree days 15  
Cooling Degree Days 4    
Month to date cooling degree days 68  
Year to date cooling degree days 191  
Since 1 June cooling degree days 147  
Growing Degree Days 18 (Base 50)    
Moisture  
Dew Point 58 °F    
Average Humidity 72    
Maximum Humidity 90    
Minimum Humidity 54    
Precipitation  
Precipitation 0.00 in - 0.01 in (2001)
Month to date precipitation T  
Year to date precipitation 8.24  
Since 1 July precipitation 0.06  
Sea Level Pressure  
Sea Level Pressure 29.94 in    
Wind  
Wind Speed 4 mph (ESE)    
Max Wind Speed 14 mph    
Max Gust Speed 18 mph    
Visibility 8 miles    
Events      
T = Trace of Precipitation, MM = Missing Value Source: NWS Daily Summary

Daily Weather History Graph

Daily Weather History Graph

Search for Another Location

Airport or City:

Trip Planner

Search our weather history database for the weather conditions in past years. The results will help you decide how hot, cold, wet, or windy it might be!

Date:

Astronomy

Aug. 29, 2014 Rise Set
Actual Time 6:35 AM PDT 7:39 PM PDT
Civil Twilight 6:08 AM PDT 8:06 PM PDT
Nautical Twilight 5:37 AM PDT 8:38 PM PDT
Astronomical Twilight 5:04 AM PDT 9:10 PM PDT
Moon 10:23 AM PDT (8/29) 9:47 PM PDT (8/29)
Length of Visible Light 13h 57m
Length of Day
13h 04m
Waxing Crescent, 16% of the Moon is Illuminated
Aug 29
Waxing Crescent
Sep 2
First Quarter
Sep 8
Full
Sep 15
Last Quarter
Sep 23
New

Hourly Weather History & Observations

Time (PDT) Temp. Dew Point Humidity Pressure Visibility Wind Dir Wind Speed Gust Speed Precip Events Conditions
12:16 AM 63.0 °F 59.0 °F 87% 29.99 in 10.0 mi ENE 4.6 mph - N/A   Overcast
12:53 AM 63.0 °F 59.0 °F 87% 29.99 in 10.0 mi ENE 3.5 mph - N/A   Overcast
1:53 AM 62.1 °F 57.9 °F 86% 29.97 in 10.0 mi NE 3.5 mph - N/A   Overcast
2:01 AM 63.0 °F 57.9 °F 84% 29.97 in 10.0 mi NNE 3.5 mph - N/A   Overcast
2:53 AM 62.1 °F 57.9 °F 86% 29.95 in 8.0 mi Calm Calm - N/A   Overcast
3:53 AM 62.1 °F 57.9 °F 86% 29.96 in 7.0 mi Calm Calm - N/A   Overcast
4:53 AM 62.1 °F 57.9 °F 86% 29.94 in 5.0 mi Calm Calm - N/A   Overcast
5:53 AM 61.0 °F 57.9 °F 90% 29.96 in 6.0 mi NW 3.5 mph - N/A   Overcast
6:53 AM 61.0 °F 57.9 °F 90% 29.95 in 3.0 mi Calm Calm - N/A   Overcast
6:57 AM 61.0 °F 57.9 °F 90% 29.95 in 1.8 mi Calm Calm - N/A   Overcast
7:07 AM 61.0 °F 57.9 °F 90% 29.95 in 1.2 mi Calm Calm - N/A   Overcast
7:25 AM 61.0 °F 57.9 °F 90% 29.95 in 2.0 mi Calm Calm - N/A   Overcast
7:36 AM 62.1 °F 57.9 °F 86% 29.96 in 4.0 mi Calm Calm - N/A   Overcast
7:53 AM 61.0 °F 57.0 °F 87% 29.96 in 6.0 mi WNW 3.5 mph - N/A   Overcast
8:53 AM 62.1 °F 57.9 °F 86% 29.96 in 6.0 mi Calm Calm - N/A   Overcast
9:42 AM 64.0 °F 57.9 °F 80% 29.96 in 9.0 mi Calm Calm - N/A   Overcast
9:53 AM 64.9 °F 57.9 °F 78% 29.96 in 10.0 mi North 4.6 mph - N/A   Overcast
10:31 AM 69.1 °F 57.9 °F 68% 29.96 in 10.0 mi Variable 4.6 mph - N/A   Partly Cloudy
10:53 AM 69.1 °F 57.9 °F 68% 29.96 in 10.0 mi South 4.6 mph - N/A   Clear
11:53 AM 73.9 °F 57.9 °F 57% 29.93 in 10.0 mi Calm Calm - N/A   Clear
12:53 PM 75.0 °F 60.1 °F 60% 29.91 in 10.0 mi South 8.1 mph - N/A   Clear
1:53 PM 73.9 °F 57.9 °F 57% 29.92 in 10.0 mi SW 12.7 mph - N/A   Clear
2:53 PM 75.0 °F 57.9 °F 55% 29.92 in 10.0 mi Variable 4.6 mph - N/A   Clear
3:53 PM 72.0 °F 59.0 °F 64% 29.91 in 10.0 mi SE 9.2 mph - N/A   Clear
4:53 PM 72.0 °F 60.1 °F 66% 29.91 in 10.0 mi ESE 8.1 mph - N/A   Clear
5:53 PM 68.0 °F 59.0 °F 73% 29.91 in 10.0 mi SE 6.9 mph - N/A   Clear
6:53 PM 66.9 °F 59.0 °F 76% 29.91 in 10.0 mi SE 6.9 mph - N/A   Clear
7:53 PM 64.9 °F 59.0 °F 81% 29.91 in 10.0 mi ESE 4.6 mph - N/A   Clear
8:53 PM 64.0 °F 59.0 °F 84% 29.92 in 10.0 mi SSE 3.5 mph - N/A   Clear
9:53 PM 64.0 °F 59.0 °F 84% 29.92 in 10.0 mi Calm Calm - N/A   Clear
10:53 PM 64.0 °F 59.0 °F 84% 29.92 in 10.0 mi Calm Calm - N/A   Clear
11:53 PM 62.1 °F 57.9 °F 86% 29.93 in 10.0 mi Calm Calm - N/A   Clear